Regional Weather Roundup
Issued by NWS Cleveland, OH

Home | Current Version | Previous Version | Text Only | Print | Product List | Glossary Off
Versions: 1 2 3 4 5 6 7 8 9 10 11 12 13 14 15 16 17 18 19 20 21 22 23 24 25 26 27 28 29 30 31 32 33 34 35 36 37 38 39 40 41 42 43 44 45 46 47 48 49 50

000
ASUS41 KCLE 181400
RWRCLE
OHIO REGIONAL WEATHER ROUNDUP
NATIONAL WEATHER SERVICE WILMINGTON, OH
900 AM EST THU DEC 18 2014

NOTE: "FAIR" INDICATES FEW OR NO CLOUDS BELOW 12,000 FEET WITH NO
SIGNIFICANT WEATHER AND/OR OBSTRUCTIONS TO VISIBILITY.

OHZ001>008-015>018-024>027-034-035-043-044-181500-
   NORTHWEST OHIO

CITY           SKY/WX    TMP DP  RH WIND       PRES   REMARKS
DEFIANCE       NOT AVBL
FINDLAY        CLOUDY    29  23  78 W8        30.23R WCI  21
TOLEDO EXPRESS CLOUDY    29  22  75 W10       30.22R WCI  20
TOLEDO METCALF CLOUDY    30  22  72 SW8       30.23R WCI  22
LIMA           CLOUDY    30  21  69 SW6       30.24R WCI  24
$$

OHZ009>014-019>023-028>033-038-089-181500-
   NORTHEAST OHIO

CITY           SKY/WX    TMP DP  RH WIND       PRES   REMARKS
CLE-HOPKINS    CLOUDY    29  22  75 SW8       30.22S WCI  21
CLE-LAKEFRONT  CLOUDY    31  23  72 SW10      30.20R WCI  22
CUY CO. ARPT   CLOUDY    32  27  80 W14       30.19R WCI  22
LORAIN-ELYRIA  CLOUDY    28  22  78 W8        30.21S WCI  20
ASHTABULA      CLOUDY    30  24  78 W7        30.17R WCI  23
AKRON-CANTON   FLURRIES  28  21  75 W6        30.19R WCI  22
WOOSTER        NOT AVBL
MANSFIELD      CLOUDY    27  21  78 W5        30.19F WCI  22
YOUNGSTOWN     FLURRIES  28  21  75 W8        30.16R WCI  20
$$

OHZ042-051>053-060>062-070>072-077>081-181500-
  SOUTHWEST OHIO

CITY           SKY/WX    TMP DP  RH WIND       PRES   REMARKS
CINC-COVINGTON CLOUDY    27  18  69 SW3       30.29R
CINC-LUNKEN    CLOUDY    27  22  81 CALM      30.32R
HAMILTON       CLOUDY    28  18  66 NW5       30.31R WCI  23
DAYTON         NOT AVBL
WRIGHT-PAT AFB NOT AVBL
DAYTON GENERAL CLOUDY    26  18  71 NW6       30.26R WCI  19
WILMINGTON     CLOUDY    26  17  68 W3        30.25R
$$

OHZ036-037-039>041-045>050-054>059-063>069-073>076-082>088-181500-
  CENTRAL AND SOUTHEAST OHIO

CITY           SKY/WX    TMP DP  RH WIND       PRES   REMARKS
COLUMBUS       CLOUDY    27  19  72 W5        30.25S WCI  22
OSU AIRPORT    CLOUDY    27  20  75 NW6       30.25R WCI  20
BOLTON FIELD   CLOUDY    27  19  74 CALM      30.25R
RICKENBACK AFB NOT AVBL
NEWARK         CLOUDY    28  20  71 NW7       30.23F WCI  21
MARION         CLOUDY    28  20  71 SW5       30.23S WCI  23
LANCASTER      CLOUDY    28  20  71 SW3       30.25S
ZANESVILLE     CLOUDY    27  19  72 NW3       30.24S
NEW PHILLY     CLOUDY    29  20  69 W6        30.23S WCI  23
$$



USA.gov is the U.S. government's official web portal to all federal, state and local government web resources and services.